Wind_Speed
28 26 23 21 18 16 15 13 12 11 9 8 8 7 7 6 6 6 5 5 5 5 5 5 6 6 6 6 6 6 5 5 4 5 5 5 6 7 8 9 10 12 13
31 28 25 23 20 18 16 15 14 12 10 9 9 8 8 8 7 7 7 6 6 6 6 6 6 6 6 6 6 6 6 5 5 5 5 6 6 7 8 9 11 12 14
32 29 27 24 22 20 18 17 15 14 12 11 10 10 9 9 8 8 8 8 7 7 7 7 7 7 7 7 7 6 6 5 5 6 6 6 7 8 8 10 11 13 14
34 31 29 26 24 22 20 18 17 15 14 12 11 11 10 10 10 9 9 9 8 8 8 8 8 8 8 7 7 7 6 6 6 6 6 7 8 8 9 11 12 14 15
35 33 31 28 26 24 22 20 18 17 15 14 13 12 12 11 11 10 10 9 9 8 8 8 8 8 8 7 7 7 7 7 7 7 7 8 8 9 10 11 13 14 16
38 35 33 30 28 26 24 22 20 18 17 16 15 14 13 13 12 12 11 10 10 9 9 9 9 8 8 8 8 8 8 7 8 8 8 8 9 10 11 12 13 15 16
40 38 35 32 30 28 26 24 22 20 18 17 16 15 14 14 13 13 12 11 11 10 10 9 9 9 9 9 9 8 8 8 8 9 9 9 10 10 11 13 14 15 17
42 40 37 35 32 30 27 25 23 22 20 18 17 17 16 15 15 14 13 13 12 11 11 10 10 10 10 10 10 9 9 9 10 10 10 10 11 12 13 14 15 16 18
44 42 40 37 34 31 29 27 25 23 21 20 19 18 17 16 16 16 15 14 13 13 12 11 11 11 11 11 10 10 10 10 11 11 11 11 12 13 14 15 16 18 19
47 44 42 39 36 33 31 28 26 24 22 21 20 19 18 18 17 17 16 15 15 14 13 13 12 12 12 12 12 12 12 12 12 12 12 13 13 14 15 17 18 20 21
48 46 44 42 38 35 32 30 27 25 24 22 21 20 20 19 19 18 18 17 16 16 15 14 14 13 13 13 13 13 13 13 13 14 14 14 15 16 17 18 19 21 22
46 45 45 43 40 36 33 30 28 26 25 24 22 21 21 20 20 20 19 19 18 17 17 16 15 15 15 15 15 15 15 15 15 15 16 16 17 18 19 20 21 23 24
47 46 45 44 41 37 34 31 29 27 26 25 23 22 22 21 21 21 21 20 20 19 18 18 17 16 16 16 16 16 16 17 17 17 18 18 19 19 21 22 23 25 26
46 46 46 45 43 39 35 32 30 28 27 26 24 23 23 22 22 22 22 22 21 21 20 20 19 18 18 18 18 18 18 18 19 19 20 20 21 22 23 24 26 27 28
43 44 45 44 42 39 36 34 31 29 28 26 25 24 24 24 24 23 24 24 23 23 22 21 21 20 20 20 20 20 20 21 21 22 22 23 24 25 25 27 28 30 31
40 42 42 43 42 40 38 36 34 32 29 27 26 26 25 25 24 24 25 25 25 25 24 24 23 23 23 23 23 23 23 23 24 24 25 26 27 28 29 30 31 32 33
37 39 39 40 41 40 39 38 35 33 31 29 28 27 26 26 25 25 26 26 26 26 26 26 26 26 26 26 26 26 26 26 27 28 28 29 30 31 32 33 34 35 36
34 36 37 38 39 39 38 38 37 36 34 32 30 29 28 27 27 27 27 27 27 27 28 28 28 28 28 28 29 29 29 30 31 31 32 33 33 34 35 36 37 37 38
33 34 34 35 36 38 38 37 36 36 35 34 32 31 30 29 27 27 27 27 27 28 29 30 30 31 31 31 31 32 32 33 34 35 36 36 37 37 38 39 39 40 40
33 33 34 34 34 36 37 37 36 36 35 34 33 33 32 30 29 28 28 29 29 30 30 31 32 33 33 34 34 34 35 35 37 38 39 39 40 40 41 42 42 42 42
35 33 32 32 33 35 35 36 35 35 36 35 34 33 32 31 30 29 30 30 31 31 32 33 34 34 35 36 36 37 37 38 39 40 40 41 42 43 43 44 44 43 42
36 35 34 33 33 34 34 35 35 36 37 37 35 34 33 33 32 32 32 32 32 33 34 35 36 37 37 38 38 39 38 38 40 41 42 43 44 45 45 45 45 43 42
36 34 34 35 34 34 33 35 36 36 36 37 37 36 35 34 34 35 35 35 35 36 36 37 37 38 38 39 39 40 40 40 40 41 43 44 45 46 46 46 44 44 43
37 37 36 35 34 34 34 33 34 34 34 35 36 35 36 35 36 36 37 38 38 39 39 39 40 40 41 41 42 43 43 44 44 43 43 45 46 45 45 45 44 43 43
37 37 37 36 36 35 36 36 35 35 35 35 35 35 36 36 37 38 38 38 39 40 41 41 42 43 43 43 43 44 44 45 46 46 45 45 45 45 45 45 45 44 44
38 38 37 37 37 36 37 37 37 36 36 35 36 36 37 38 38 39 39 39 40 41 41 42 43 44 45 45 46 46 46 47 47 47 47 46 46 46 46 46 46 46 45
Wind_Direction
222 222 222 220 221 223 224 225 225 225 224 225 229 234 237 241 246 249 257 268 279 288 295 300 305 310 314 315 320 324 326 331 339 345 351 355 357 359 359 358 357 356 355
222 221 221 219 220 222 224 225 226 226 227 228 230 235 239 242 245 249 255 262 272 279 286 292 299 306 310 313 315 318 320 324 329 334 340 343 344 346 348 350 349 349 349
222 222 221 220 220 222 224 225 225 226 228 228 230 233 238 242 245 249 253 259 267 275 281 287 294 300 305 307 309 310 311 314 319 323 328 329 331 335 339 341 342 343 344
221 221 220 220 221 223 224 225 224 225 227 229 230 232 236 240 246 249 253 259 265 272 279 285 291 297 301 302 303 304 304 306 310 313 316 319 324 328 332 335 337 338 340
220 221 220 220 221 223 224 225 223 224 227 229 231 232 236 240 244 248 252 258 263 269 277 283 288 293 296 298 299 300 301 303 305 308 311 315 320 323 327 331 334 335 337
219 220 220 220 221 222 224 224 223 224 226 229 231 233 236 239 243 246 250 256 262 268 274 280 285 288 291 294 296 298 299 300 303 305 309 312 316 320 324 328 331 333 334
218 219 220 220 220 222 223 223 223 224 226 229 230 233 236 238 241 244 248 254 260 267 272 277 281 286 290 292 295 298 299 299 301 304 307 310 314 318 321 325 327 329 330
216 217 219 219 220 221 222 223 223 224 226 228 230 233 235 238 240 243 247 251 256 262 268 271 276 282 287 290 292 294 295 296 299 303 306 309 312 315 318 321 323 325 327
215 216 218 219 219 220 222 223 223 224 225 226 229 232 235 238 240 243 245 249 253 258 262 266 271 276 281 284 288 290 292 294 297 300 303 307 310 313 316 318 320 323 324
213 215 217 217 217 219 220 222 222 223 224 226 228 232 235 237 240 241 243 247 251 254 258 263 267 271 275 279 283 286 289 291 294 297 300 303 307 311 314 316 318 320 321
211 214 215 215 215 217 218 220 221 222 223 226 228 231 234 237 239 240 243 246 249 252 256 260 263 268 272 275 279 283 285 288 292 295 298 301 305 308 311 314 316 317 318
210 212 214 213 213 214 216 217 219 221 223 226 229 231 234 237 239 241 243 245 248 251 254 258 261 265 269 273 277 280 283 287 290 293 296 299 303 306 309 311 313 315 316
211 210 210 211 210 211 212 214 217 219 222 225 229 231 234 237 239 241 243 245 247 249 253 256 258 262 266 270 274 278 281 285 288 291 294 297 300 303 306 308 311 312 313
207 207 208 209 208 208 210 212 215 218 220 223 227 230 234 237 240 241 243 245 247 249 252 255 258 261 265 269 273 277 280 283 286 289 292 295 297 300 303 306 308 310 311
210 209 211 209 207 208 209 212 214 217 220 222 226 229 233 237 239 242 245 246 248 250 252 255 259 262 266 269 272 275 277 280 283 286 289 292 295 299 301 304 306 307 309
212 210 211 210 210 211 212 213 215 218 221 224 226 229 233 236 239 243 245 248 250 251 253 256 259 263 266 269 272 274 277 280 283 286 289 291 294 297 300 302 304 305 307
219 215 212 212 211 211 213 214 216 218 221 224 226 229 233 236 239 243 246 249 251 253 255 258 260 263 266 269 272 274 277 280 283 285 288 290 292 295 298 300 302 304 305
222 220 219 212 211 211 213 215 217 219 221 224 227 230 233 236 240 243 246 249 252 255 257 259 261 263 266 269 272 274 277 280 282 285 287 289 291 293 296 298 300 301 303
222 224 223 216 215 214 215 218 221 223 225 227 229 232 235 239 242 245 248 251 254 256 258 260 262 264 267 269 272 274 277 280 282 284 286 288 290 292 294 296 298 299 301
227 228 226 223 222 221 220 221 224 227 229 230 232 235 238 240 244 247 251 254 257 259 261 263 264 266 268 270 272 274 277 279 282 285 286 287 289 291 293 294 296 297 298
227 226 225 225 225 225 226 228 229 231 231 233 235 237 239 243 246 249 253 256 260 262 264 265 267 268 269 271 272 274 277 280 282 284 286 287 288 290 292 293 295 296 296
230 231 230 230 230 230 231 233 232 233 234 235 237 239 241 244 248 252 255 259 261 263 265 267 268 270 271 272 274 275 275 278 282 284 286 287 289 290 292 293 294 294 295
234 236 236 235 235 235 238 238 237 238 239 239 240 242 244 247 251 252 255 259 261 263 266 268 269 270 272 273 274 276 277 278 280 283 285 286 288 290 291 292 293 294 294
237 239 240 240 240 239 239 239 240 241 242 243 243 246 248 251 253 254 257 261 262 264 266 268 269 271 272 274 276 278 280 281 282 284 285 287 288 289 290 291 291 292 292
236 239 241 242 242 241 241 241 241 244 246 248 248 250 253 255 256 257 259 261 263 265 267 268 269 271 273 275 277 280 282 283 284 285 286 288 288 288 289 290 290 291 291
236 239 241 241 242 243 243 244 245 247 250 251 251 253 256 258 259 261 262 262 263 266 268 271 271 273 274 276 278 280 282 284 285 286 286 287 288 289 289 290 290 290 289
Height
5858 5861 5864 5866 5868 5870 5872 5873 5875 5876 5876 5877 5878 5879 5879 5880 5881 5881 5882 5882 5882 5882 5883 5883 5882 5882 5882 5882 5882 5882 5881 5881 5881 5881 5880 5880 5879 5879 5878 5877 5876 5875 5874
5854 5857 5860 5863 5865 5867 5869 5871 5872 5874 5875 5876 5876 5877 5878 5879 5880 5880 5881 5881 5881 5882 5882 5882 5882 5882 5881 5881 5881 5881 5881 5881 5881 5880 5880 5879 5879 5878 5877 5877 5876 5874 5873
5851 5854 5857 5860 5862 5864 5866 5868 5870 5871 5873 5874 5875 5876 5877 5878 5878 5879 5879 5880 5880 5881 5881 5881 5881 5881 5881 5881 5881 5880 5880 5880 5880 5880 5879 5879 5878 5878 5877 5876 5875 5873 5872
5847 5850 5853 5856 5859 5861 5863 5865 5867 5869 5870 5872 5873 5874 5875 5876 5877 5877 5878 5879 5879 5879 5880 5880 5880 5880 5880 5880 5880 5880 5880 5879 5879 5879 5878 5878 5877 5877 5876 5875 5874 5872 5871
5842 5846 5849 5852 5855 5858 5860 5862 5864 5866 5868 5869 5871 5872 5873 5874 5875 5876 5876 5877 5878 5878 5879 5879 5879 5879 5879 5879 5879 5879 5879 5878 5878 5878 5877 5877 5876 5875 5875 5874 5872 5871 5869
5837 5841 5845 5848 5851 5854 5857 5859 5861 5863 5865 5866 5868 5869 5870 5872 5873 5874 5875 5876 5876 5877 5877 5878 5878 5878 5878 5878 5878 5877 5877 5877 5877 5876 5876 5876 5875 5874 5873 5872 5871 5869 5868
5831 5836 5840 5843 5847 5850 5853 5855 5857 5859 5861 5863 5865 5867 5868 5869 5870 5872 5873 5874 5874 5875 5876 5876 5876 5876 5876 5876 5876 5876 5876 5876 5876 5875 5875 5874 5873 5873 5871 5870 5869 5868 5866
5825 5830 5834 5838 5842 5846 5849 5851 5854 5856 5858 5860 5862 5864 5865 5866 5868 5869 5870 5871 5872 5873 5874 5874 5874 5875 5875 5875 5875 5875 5875 5874 5874 5874 5873 5872 5872 5871 5870 5868 5867 5865 5864
5819 5824 5829 5833 5837 5841 5844 5847 5850 5852 5854 5856 5859 5861 5862 5864 5865 5866 5868 5869 5870 5871 5872 5872 5872 5873 5873 5873 5873 5873 5873 5873 5872 5872 5871 5870 5870 5869 5868 5866 5865 5863 5861
5812 5817 5823 5828 5832 5836 5840 5843 5846 5848 5850 5853 5855 5857 5859 5860 5862 5863 5865 5866 5867 5868 5869 5870 5870 5870 5871 5871 5871 5871 5871 5870 5870 5870 5869 5868 5867 5866 5865 5864 5862 5861 5859
5805 5811 5816 5821 5826 5831 5834 5838 5841 5844 5846 5849 5851 5853 5855 5857 5858 5860 5861 5863 5864 5865 5866 5867 5867 5868 5868 5868 5868 5868 5868 5868 5868 5867 5867 5866 5865 5864 5862 5861 5859 5858 5856
5799 5805 5810 5815 5820 5825 5829 5833 5836 5839 5842 5845 5847 5849 5851 5853 5855 5856 5858 5859 5860 5862 5863 5864 5864 5865 5865 5865 5865 5865 5865 5865 5865 5864 5864 5863 5862 5861 5859 5858 5856 5854 5852
5793 5798 5803 5808 5813 5819 5823 5827 5831 5834 5837 5840 5842 5845 5847 5849 5851 5852 5854 5855 5857 5858 5859 5860 5861 5861 5862 5862 5862 5862 5862 5861 5861 5861 5860 5859 5858 5857 5856 5854 5852 5850 5848
5786 5791 5796 5801 5807 5812 5817 5822 5826 5829 5832 5835 5838 5840 5842 5844 5846 5848 5850 5851 5852 5854 5855 5856 5857 5857 5858 5858 5858 5858 5858 5857 5857 5857 5856 5855 5854 5853 5851 5850 5848 5846 5843
5782 5787 5791 5795 5800 5805 5811 5816 5820 5824 5827 5830 5832 5835 5837 5839 5841 5843 5845 5847 5848 5849 5850 5851 5852 5853 5853 5853 5854 5854 5853 5853 5852 5852 5851 5850 5849 5848 5847 5845 5843 5841 5838
5777 5782 5786 5790 5794 5799 5804 5809 5814 5818 5821 5824 5827 5829 5832 5834 5836 5838 5840 5841 5843 5844 5845 5846 5847 5848 5848 5848 5849 5849 5848 5848 5847 5847 5846 5845 5844 5842 5841 5839 5837 5835 5832
5771 5777 5782 5786 5790 5794 5798 5803 5807 5811 5815 5818 5821 5824 5826 5828 5831 5833 5834 5836 5837 5839 5840 5841 5842 5842 5843 5843 5843 5843 5843 5842 5841 5841 5840 5839 5838 5836 5834 5833 5831 5828 5826
5764 5771 5776 5781 5785 5789 5794 5798 5802 5805 5808 5812 5815 5818 5820 5823 5825 5827 5829 5830 5832 5833 5834 5835 5836 5836 5837 5837 5837 5837 5837 5836 5835 5834 5833 5832 5831 5830 5828 5826 5824 5821 5819
5758 5764 5770 5776 5781 5785 5789 5793 5796 5799 5802 5805 5809 5812 5814 5817 5819 5821 5823 5824 5825 5827 5828 5828 5829 5830 5830 5830 5831 5830 5830 5829 5829 5828 5827 5825 5824 5822 5820 5818 5816 5814 5811
5752 5758 5764 5769 5775 5779 5783 5787 5790 5794 5797 5800 5802 5805 5807 5810 5812 5814 5816 5818 5819 5820 5821 5822 5822 5823 5823 5823 5824 5823 5823 5822 5821 5820 5819 5818 5816 5815 5813 5811 5808 5806 5803
5746 5752 5757 5762 5768 5772 5776 5780 5784 5788 5791 5794 5796 5798 5801 5803 5805 5807 5809 5811 5812 5813 5814 5815 5815 5815 5816 5816 5816 5816 5816 5814 5813 5812 5811 5810 5808 5806 5805 5802 5800 5798 5795
5740 5746 5751 5756 5760 5765 5770 5774 5777 5781 5784 5787 5789 5792 5794 5796 5798 5800 5802 5803 5804 5805 5806 5807 5807 5807 5808 5808 5808 5808 5808 5808 5805 5804 5802 5801 5799 5797 5796 5793 5791 5789 5786
5734 5739 5745 5749 5754 5758 5762 5766 5770 5773 5776 5779 5782 5785 5787 5788 5790 5792 5793 5795 5796 5797 5798 5798 5799 5799 5799 5799 5798 5798 5799 5799 5798 5797 5794 5792 5790 5788 5786 5784 5781 5779 5777
5729 5733 5738 5742 5747 5751 5755 5758 5761 5765 5768 5770 5774 5777 5779 5780 5782 5784 5785 5786 5787 5788 5789 5789 5790 5790 5790 5790 5789 5789 5788 5788 5787 5787 5786 5783 5781 5779 5777 5775 5772 5770 5767
5723 5728 5732 5736 5740 5744 5748 5751 5754 5758 5761 5763 5766 5768 5770 5772 5774 5775 5776 5777 5778 5779 5780 5780 5780 5781 5781 5780 5780 5779 5778 5777 5776 5775 5775 5773 5771 5769 5767 5765 5763 5760 5758
5717 5721 5725 5729 5733 5737 5740 5743 5746 5749 5752 5755 5758 5760 5761 5763 5765 5766 5767 5768 5769 5770 5770 5771 5771 5771 5771 5770 5770 5769 5768 5767 5766 5764 5764 5763 5761 5759 5757 5754 5752 5750 5747